Flag for Germany Weather past 2 weeks in Mosbach, Baden-Württemberg, Germany

Now
78 °F

Clear.


Feels Like: 80 °F
Forecast: 70 / 99 °F
Wind: 1 mph from Southeast

Location: Oehringen

Current Time: Jul 4, 2015 at 1:55:43 AM

Latest Report: Jul 4, 2015 at 1:00 AM


Visibility: 8 mi

Pressure: 30.16 "Hg

Humidity: 73%

Dew point: 68 °F

Location of MosbachLocation

Historic Weather in Mosbach — Graph

°F

Mosbach temperature yesterday

Maximum temperature yesterday: 95 °F (at 6:00 PM)
Minimum temperature yesterday: 72 °F (at 5:00 AM)
Average temperature yesterday: 84 °F

Past Weeks' High & Low Weather Summary

 TemperatureHumidityPressure
High95 °F (Jul 3, 6:00 PM)98% (Jun 27, 11:00 AM)30.24 "Hg (Jun 27, 11:00 AM)
Low49 °F (Jun 23, 7:00 AM)29% (Jun 30, 6:00 PM)29.75 "Hg (Jun 23, 2:00 AM)
Average66 °F69%30.09 "Hg
* Reported Midnight between Jun 18 and Jun 19 — Midnight between Jul 3 and Jul 4, Mosbach, Weather by CustomWeather, © 2015

Note: Actual official high and low records may vary slightly from our data, if they occured in-between our weather recording intervals... More about our weather records

Advertising

Mosbach weather history for previous 24 hours

 ConditionsComfort  
Time TempWeatherWind HumidityBarometerVisibility
12:00 AM
Sat, Jul 4
78 °FClear.2 mph72%30.15 "Hg7 mi
11:00 PM
Fri, Jul 3
81 °FClear.1 mph72%30.15 "Hg9 mi
10:00 PM83 °FClear.1 mph68%30.14 "Hg9 mi
9:00 PM87 °FScattered clouds.2 mph61%30.13 "Hg9 mi
8:00 PM93 °FScattered clouds.1 mph38%30.12 "Hg14 mi
7:00 PM93 °FScattered clouds.2 mph36%30.13 "Hg14 mi
6:00 PM95 °FScattered clouds.2 mph38%30.13 "Hg12 mi
5:00 PM93 °FPartly sunny.2 mph37%30.14 "Hg13 mi
4:00 PM92 °FOvercast.2 mph35%30.15 "Hg13 mi
3:00 PM94 °FSunny.2 mph39%30.15 "Hg12 mi
2:00 PM93 °FSunny.1 mph40%30.16 "Hg12 mi
1:00 PM90 °FSunny.2 mph44%30.18 "Hg12 mi
12:00 PM88 °FSunny.2 mph48%30.19 "Hg11 mi
11:00 AM86 °FSunny.2 mph51%30.19 "Hg14 mi
10:00 AM82 °FSunny.3 mph53%30.19 "Hg16 mi
9:00 AM80 °FSunny.1 mph57%30.19 "Hg12 mi
8:00 AM75 °FPartly sunny.No wind68%30.19 "Hg11 mi
7:00 AM72 °FPassing clouds.1 mph71%30.18 "Hg12 mi
5:00 AM72 °FClear.2 mph69%30.16 "Hg12 mi
4:00 AM73 °FPassing clouds.2 mph65%30.15 "Hg16 mi
3:00 AM73 °FClear.1 mph65%30.16 "Hg17 mi
2:00 AM77 °FClear.2 mph57%30.15 "Hg19 mi
1:00 AM79 °FClear.3 mph51%30.14 "Hg19 mi
Weather by CustomWeather, © 2015

See weather overviewHow to use our weather pages